Probability
19 35 42 42 48 26 29 32 16 16 16 10 0 0 0 0 0 0 0 0 0 0 0 0 0 0 0 0 0 0 0 0 0 0 0 0 0 0
58 32 35 19 35 32 35 42 29 26 32 13 6 0 0 0 0 0 0 0 0 0 0 0 0 0 0 0 0 0 0 0 0 0 0 0 0 0
6 6 23 35 45 48 55 55 39 32 26 26 6 0 0 0 0 0 0 0 0 0 0 0 0 0 0 0 0 0 0 0 0 0 0 0 0 0
6 6 13 13 29 55 61 48 45 35 26 29 13 6 0 0 0 0 0 0 0 0 0 0 0 0 0 0 0 0 0 0 0 0 0 0 0 0
3 3 3 6 32 52 42 45 58 23 32 26 16 10 0 0 0 0 0 0 0 0 0 0 0 0 0 0 0 0 0 0 0 0 0 0 0 0
0 0 3 3 13 19 13 23 13 6 16 16 6 6 0 0 0 0 0 0 0 0 0 0 0 0 0 0 0 0 0 0 0 0 0 0 0 0
0 0 0 0 0 0 0 0 3 13 16 6 3 0 0 0 0 0 0 0 3 0 0 0 0 0 0 0 0 0 0 0 0 0 0 0 0 0
3 0 0 0 0 0 0 0 0 0 3 6 6 3 0 0 0 0 0 0 0 0 0 3 3 0 0 3 0 0 0 0 0 0 0 0 0 0
3 3 0 0 0 6 3 0 0 0 0 0 0 0 0 0 0 0 0 0 3 0 0 0 0 0 0 0 0 0 0 0 0 0 0 0 0 0
29 3 3 0 0 0 0 0 3 0 0 0 0 0 0 0 0 0 0 0 0 0 0 0 0 0 0 0 0 0 0 0 0 0 0 0 0 0
29 16 6 13 0 0 0 0 0 0 0 0 0 0 0 0 0 0 0 0 0 0 0 0 0 0 0 3 0 0 0 0 0 0 0 0 0 0
48 32 0 0 0 0 0 0 0 0 0 0 0 0 0 0 0 0 0 0 0 0 0 0 0 0 0 0 0 0 0 0 0 0 0 0 0 0
39 42 26 0 0 0 0 0 0 0 0 0 0 0 0 0 0 0 0 0 0 0 0 0 0 0 0 0 0 0 0 0 0 0 0 0 0 0
35 29 10 0 0 0 0 0 0 0 0 0 0 0 0 3 0 0 0 0 0 0 0 0 0 0 0 0 0 0 0 0 0 0 0 0 0 0
6 3 0 0 0 0 0 0 0 0 0 3 3 0 0 0 0 0 0 0 0 0 0 0 0 0 0 0 0 0 0 0 0 0 0 0 0 0
0 0 0 0 0 0 0 0 0 3 0 0 0 0 0 0 0 0 0 0 0 0 0 0 0 0 0 0 0 0 0 0 0 0 0 0 0 0
0 0 0 0 0 3 3 3 3 0 0 0 0 0 0 0 0 0 0 0 0 0 0 0 0 0 0 0 0 0 0 0 0 0 0 0 0 0
0 0 0 0 0 0 0 0 0 0 0 0 0 0 0 0 0 0 0 0 0 0 0 0 0 0 0 0 0 0 0 0 0 0 0 0 0 0
0 0 0 0 0 0 0 0 0 0 0 0 0 0 0 0 0 0 0 0 0 0 0 0 0 0 0 0 0 0 0 0 0 0 0 0 0 0
0 0 0 0 0 0 0 0 0 0 0 0 0 0 0 0 0 0 0 0 0 0 0 0 0 0 0 0 0 0 0 0 0 0 0 0 0 0
0 0 0 0 0 0 0 0 0 0 0 0 0 0 0 0 0 0 0 0 0 0 0 0 0 0 0 0 0 0 0 0 0 0 0 0 0 0
0 0 0 0 0 0 0 0 0 0 0 0 0 0 0 0 0 0 0 0 0 0 0 0 0 0 0 0 0 0 0 0 0 0 0 0 0 0
0 0 0 0 0 0 0 0 0 0 0 0 0 0 0 0 0 0 0 0 0 0 0 0 0 0 0 0 0 0 0 0 0 0 0 0 0 0
Height
5820 5819 5818 5818 5817 5817 5817 5817 5817 5817 5818 5819 5820 5822 5823 5825 5827 5828 5830 5832 5833 5835 5837 5839 5841 5843 5844 5845 5847 5848 5850 5851 5853 5854 5855 5857 5858 5860
5813 5812 5812 5812 5811 5811 5811 5811 5811 5811 5812 5813 5814 5815 5817 5819 5821 5823 5824 5826 5828 5830 5832 5834 5836 5837 5839 5840 5842 5843 5844 5846 5847 5848 5849 5851 5852 5854
5806 5806 5806 5805 5805 5805 5805 5805 5805 5805 5806 5807 5807 5809 5811 5813 5815 5817 5819 5821 5823 5825 5826 5828 5830 5832 5833 5835 5836 5838 5839 5840 5841 5842 5843 5845 5846 5847
5800 5800 5800 5799 5799 5799 5799 5800 5799 5799 5800 5800 5801 5803 5804 5806 5808 5811 5813 5815 5817 5819 5821 5823 5825 5826 5828 5829 5831 5832 5833 5834 5836 5837 5838 5839 5840 5841
5794 5794 5793 5793 5793 5793 5794 5794 5794 5794 5794 5795 5795 5796 5797 5799 5802 5804 5807 5809 5811 5814 5816 5817 5819 5821 5823 5824 5825 5827 5828 5829 5830 5831 5832 5833 5834 5835
5787 5787 5787 5787 5787 5787 5788 5788 5788 5788 5789 5789 5789 5790 5791 5793 5795 5798 5800 5802 5805 5807 5809 5811 5813 5815 5817 5818 5820 5821 5822 5823 5824 5825 5826 5827 5828 5829
5781 5781 5781 5781 5781 5781 5782 5782 5783 5783 5783 5784 5784 5784 5785 5786 5788 5790 5793 5795 5797 5800 5803 5805 5807 5809 5810 5812 5813 5814 5815 5816 5817 5818 5819 5821 5822 5823
5774 5774 5774 5775 5775 5775 5776 5776 5777 5777 5778 5778 5779 5779 5780 5781 5781 5783 5785 5787 5790 5793 5795 5797 5799 5801 5803 5805 5806 5807 5808 5809 5810 5811 5812 5813 5814 5815
5767 5767 5768 5768 5769 5769 5770 5770 5771 5771 5772 5773 5773 5774 5774 5775 5776 5777 5778 5779 5782 5784 5786 5789 5791 5793 5795 5797 5798 5799 5800 5801 5802 5803 5804 5805 5806 5807
5761 5761 5761 5762 5762 5763 5763 5764 5765 5765 5766 5767 5768 5768 5769 5769 5770 5771 5771 5773 5774 5776 5778 5780 5782 5784 5785 5787 5789 5790 5791 5792 5793 5794 5795 5796 5797 5797
5755 5755 5755 5756 5756 5757 5757 5758 5759 5759 5760 5761 5762 5762 5763 5764 5765 5766 5767 5767 5768 5769 5771 5772 5773 5774 5776 5777 5778 5780 5781 5782 5783 5783 5784 5785 5786 5787
5749 5749 5749 5750 5750 5751 5752 5752 5753 5754 5755 5756 5756 5757 5758 5759 5759 5760 5761 5762 5762 5762 5763 5764 5765 5766 5767 5768 5768 5769 5770 5771 5772 5772 5773 5774 5775 5776
5743 5743 5744 5744 5745 5745 5746 5747 5747 5748 5749 5750 5751 5752 5753 5753 5754 5755 5755 5756 5756 5756 5756 5757 5757 5757 5758 5758 5759 5759 5760 5760 5761 5761 5762 5763 5763 5764
5737 5738 5738 5739 5739 5740 5741 5742 5743 5744 5744 5745 5746 5746 5747 5748 5748 5749 5749 5749 5750 5750 5750 5750 5750 5750 5750 5750 5750 5749 5750 5750 5750 5750 5750 5751 5751 5752
5732 5732 5733 5733 5734 5735 5736 5737 5738 5739 5740 5740 5741 5741 5742 5742 5742 5743 5743 5743 5743 5743 5742 5742 5742 5742 5741 5741 5741 5740 5740 5740 5740 5740 5739 5739 5740 5740
5726 5727 5728 5729 5730 5730 5731 5732 5733 5734 5735 5736 5736 5737 5737 5737 5737 5737 5737 5737 5736 5736 5735 5734 5734 5733 5733 5732 5731 5730 5730 5729 5728 5728 5728 5728 5727 5727
5723 5723 5724 5725 5725 5726 5727 5728 5729 5730 5731 5732 5732 5732 5732 5732 5732 5731 5731 5730 5730 5729 5728 5727 5725 5724 5723 5722 5721 5720 5719 5718 5717 5716 5716 5715 5715 5714
5721 5721 5722 5722 5722 5723 5723 5724 5726 5727 5728 5728 5729 5728 5728 5727 5727 5726 5725 5724 5723 5721 5720 5718 5717 5715 5714 5712 5711 5709 5707 5706 5704 5703 5703 5702 5702 5701
5721 5721 5721 5722 5722 5722 5722 5723 5724 5725 5726 5726 5726 5725 5724 5723 5722 5721 5719 5718 5716 5714 5712 5710 5708 5706 5704 5702 5699 5697 5695 5693 5692 5690 5689 5688 5687 5686
5724 5724 5724 5724 5723 5723 5723 5724 5724 5724 5725 5724 5724 5723 5721 5720 5718 5716 5715 5713 5710 5708 5705 5702 5699 5696 5693 5691 5688 5685 5682 5680 5678 5676 5675 5674 5672 5671
5729 5728 5727 5727 5726 5726 5726 5725 5725 5725 5725 5724 5723 5721 5719 5717 5715 5713 5711 5708 5705 5702 5698 5695 5691 5687 5683 5680 5677 5673 5670 5667 5665 5663 5661 5659 5658 5657
5734 5733 5732 5731 5730 5729 5729 5728 5727 5726 5725 5724 5723 5721 5718 5716 5713 5711 5708 5704 5700 5696 5692 5688 5683 5678 5674 5670 5665 5662 5658 5655 5652 5649 5647 5645 5643 5642
5740 5738 5737 5735 5734 5733 5732 5731 5730 5729 5727 5725 5723 5721 5718 5716 5712 5709 5705 5701 5697 5692 5687 5682 5676 5671 5665 5660 5656 5651 5648 5644 5641 5638 5635 5632 5630 5628
Wind_Speed
22 23 23 24 23 24 23 23 24 25 26 26 27 26 26 25 24 22 22 23 25 26 27 27 27 27 26 26 25 25 25 25 25 26 27 27 28 28
22 22 22 22 22 22 22 22 22 24 25 26 27 27 26 26 25 23 22 23 23 24 25 26 26 26 26 25 25 25 25 25 25 25 26 26 27 27
21 21 21 21 21 21 22 22 22 23 23 25 27 27 27 27 27 25 24 23 23 23 23 24 25 25 25 25 25 25 25 25 25 25 25 25 25 26
21 22 21 21 21 21 22 22 21 21 22 24 26 27 27 27 28 27 26 24 24 23 23 23 23 24 24 24 24 24 24 24 24 24 24 24 25 25
21 22 22 22 21 21 22 22 21 21 21 21 22 24 25 26 28 29 28 27 26 25 25 24 23 23 24 24 24 24 24 24 24 24 24 24 24 25
22 22 22 22 22 22 22 22 22 21 21 20 21 21 23 26 27 28 29 29 29 28 27 26 25 25 25 25 25 25 25 25 25 25 25 25 25 26
22 22 22 23 23 23 23 23 23 22 22 22 22 21 22 24 25 26 29 30 31 31 31 29 29 28 28 28 27 27 27 27 27 27 27 27 27 27
22 23 23 23 23 23 23 24 24 23 23 23 22 22 22 22 23 24 28 30 31 32 33 33 33 32 32 30 30 30 30 30 30 29 29 30 30 30
23 22 22 23 23 23 23 23 24 24 24 24 23 23 23 22 23 24 25 27 31 33 34 34 34 34 34 34 34 34 34 34 33 33 33 33 33 33
22 22 22 22 22 22 22 23 23 24 23 24 24 23 23 23 24 24 24 25 27 29 31 32 34 35 36 36 36 37 38 38 38 37 37 37 37 36
22 21 21 21 21 21 21 21 22 23 23 23 24 24 23 23 24 24 25 26 27 28 29 31 33 34 35 36 37 38 39 40 41 41 40 40 40 39
21 20 20 20 20 20 20 20 21 21 22 23 23 23 23 23 23 23 24 24 26 27 29 30 32 33 33 35 36 37 39 40 41 42 42 42 43 42
19 19 18 19 19 18 18 19 20 20 20 21 22 23 23 23 23 23 24 24 25 26 27 28 29 30 32 33 35 35 36 38 40 41 42 42 43 44
18 18 18 18 19 18 18 18 18 19 19 20 20 21 22 22 23 23 24 25 26 26 27 28 28 30 31 32 33 34 35 36 37 39 40 42 42 43
16 17 17 17 17 17 17 17 17 17 17 18 19 20 20 21 22 23 24 25 26 27 28 29 30 31 32 33 34 35 36 36 37 37 39 40 41 42
14 14 14 15 15 16 16 16 16 16 16 17 18 19 19 21 22 23 23 25 26 27 29 30 31 32 33 34 34 35 36 38 39 39 40 40 41 42
8 9 10 11 11 12 13 13 13 13 14 15 15 16 17 19 20 21 23 24 25 27 28 30 31 33 34 35 35 36 37 38 39 40 40 41 42 43
3 3 4 5 5 6 7 8 9 9 10 11 12 13 14 16 18 19 21 22 24 25 27 29 30 32 34 35 36 37 38 39 41 42 42 42 43 44
7 5 3 2 1 1 0 2 3 4 5 7 8 10 12 14 16 17 19 21 23 25 27 29 30 32 33 35 36 38 39 40 42 43 44 44 45 45
12 10 9 8 7 6 5 4 3 2 3 4 6 9 11 12 14 15 17 19 21 23 25 27 29 31 33 34 36 37 39 40 41 42 43 44 45 45
16 15 13 12 11 10 9 8 7 6 5 6 7 8 9 10 12 13 15 17 19 21 24 26 27 29 31 32 34 35 37 38 39 40 41 43 43 44
18 18 17 15 14 13 12 11 10 9 9 8 9 9 10 11 11 13 15 16 18 20 22 24 25 27 29 30 31 32 34 35 36 38 39 40 41 42
18 18 17 17 15 14 14 13 13 12 12 12 12 12 12 12 13 14 15 16 17 19 21 22 23 25 26 27 27 28 30 31 32 34 35 36 38 39
Wind_Direction
269 269 269 268 269 269 271 272 268 262 256 253 251 249 248 248 250 251 248 246 245 244 244 245 246 247 247 248 247 247 247 247 248 249 249 248 247 246
270 269 268 266 266 266 267 269 268 263 256 252 251 249 246 246 245 247 246 244 243 243 244 244 245 246 247 247 247 248 247 248 250 250 249 248 248 247
273 270 268 266 264 264 263 266 267 262 257 253 250 248 247 245 242 242 243 242 242 242 242 243 244 246 247 247 249 249 250 250 251 250 249 249 248 248
273 270 267 266 265 264 262 263 265 261 258 254 250 249 247 246 242 240 241 241 241 241 241 242 244 245 247 248 249 250 251 251 251 251 249 249 249 250
272 270 267 265 263 263 262 262 262 259 257 257 256 251 246 244 241 239 239 241 241 241 240 242 243 245 247 248 249 251 251 251 252 252 252 252 252 253
271 269 267 265 263 261 260 261 261 259 258 259 259 255 248 245 243 240 241 241 240 240 241 242 244 245 247 249 250 251 252 252 252 253 254 255 255 256
272 269 267 265 263 260 259 258 259 258 259 261 262 260 253 249 245 244 245 244 243 242 242 243 244 246 248 250 251 252 253 254 255 255 256 257 257 257
272 269 267 264 262 260 258 257 256 256 256 258 260 261 261 258 254 252 249 245 244 245 245 245 247 248 249 250 252 253 255 257 257 258 258 258 258 259
272 269 267 265 263 260 258 256 255 255 256 257 258 258 260 260 261 259 254 248 245 248 250 249 249 250 250 252 254 255 256 257 258 259 261 261 260 260
271 269 267 265 263 262 259 257 256 255 256 256 257 258 259 260 261 261 260 256 253 252 252 252 252 253 254 255 255 255 255 257 259 260 262 262 262 261
269 268 266 264 263 261 259 258 257 256 256 257 258 258 260 260 259 260 261 261 260 257 257 255 255 257 258 257 257 258 258 257 258 260 262 263 262 262
268 265 264 264 263 262 260 259 258 258 257 257 258 259 261 262 261 261 261 262 262 262 261 259 259 261 261 261 261 261 260 259 260 261 261 262 263 263
266 266 265 263 262 261 261 261 259 260 260 260 260 260 261 262 262 263 263 264 265 265 265 264 263 263 263 264 264 263 262 262 261 262 262 262 263 263
266 265 264 263 262 262 263 262 261 261 261 263 263 264 264 264 265 265 265 265 266 267 267 267 268 267 267 268 267 267 266 265 264 264 263 262 262 263
268 265 262 261 263 263 263 264 261 261 262 263 264 265 266 266 267 267 268 268 268 269 269 269 270 271 271 270 269 269 269 268 266 264 263 262 262 262
270 266 261 260 262 263 264 263 261 261 264 265 266 268 269 269 270 270 271 272 272 273 273 273 273 273 273 272 272 270 270 270 269 268 267 265 265 264
274 267 265 267 267 267 266 263 260 262 265 268 271 272 273 274 274 274 275 275 275 275 275 275 276 276 276 275 274 273 272 272 271 270 269 268 266 265
328 283 276 280 277 273 265 259 256 261 265 270 276 279 281 281 281 280 281 281 281 281 280 279 279 278 278 277 276 275 274 273 272 272 271 269 268 267
55 62 59 36 27 37 271 261 256 264 275 283 290 293 295 295 293 290 288 287 286 286 286 285 284 283 282 281 279 277 276 274 273 273 272 271 270 269
64 69 73 71 73 75 74 68 60 30 344 325 318 315 313 310 306 303 301 299 297 296 294 292 290 288 286 284 282 280 278 277 275 274 273 272 271 270
65 68 72 73 74 74 72 68 61 50 32 11 356 345 339 333 326 321 316 312 309 307 304 301 298 295 292 289 286 284 282 280 278 277 275 274 273 272
66 67 69 70 71 71 70 66 61 54 45 35 25 15 6 358 350 342 336 329 324 320 317 313 309 305 302 298 294 290 287 284 283 281 279 278 276 274
64 65 66 67 68 68 66 64 61 56 51 45 40 34 28 20 12 4 357 351 345 339 334 330 324 319 314 309 304 299 295 292 289 287 284 282 280 278